{"data":{"norad_id":58979,"epoch":"2026-09-20T19:59:43.123200Z","epoch_age_seconds":126887,"freshness":"FRESH","line1":"1 58979U 24031Q   26263.83313800 -.00000211  00000+0  48745-5 0  9990","line2":"2 58979  53.1596 107.9204 0001003 105.2197 254.8917 15.34391554146424","mean_motion":15.34391554,"eccentricity":0.0001003,"inclination_deg":53.1596,"raan_deg":107.9204,"arg_perigee_deg":105.2197,"mean_anomaly_deg":254.8917,"bstar":4.8745e-6,"rev_number":14642,"period_min":93.848274662753,"perigee_km":462.0422048202,"apogee_km":463.41448240813,"semimajor_km":6840.8653436142,"source":"CELESTRAK","updated_at":"2026-09-21T09:00:34.021541Z"}}